カタログに戻る

QIANFAN-232

運用中通信PO
NORAD 69861·PAYLOAD·🇨🇳 China

打ち上げ Jul 5, 2026 から Wenchang Space Launch Site

Loading…

次のパス (今後24時間)

TLE

最新Source: Space-Track

元期: Sep 14, 2026, 21:07 UTC

1 69861U 26155P   26257.87989921 -.01871531  00000-0 -31752+1 0  9990
2 69861  89.0067  54.2549 0028679  24.4391 335.8112 13.49499275  9988

AllMySatでQIANFAN-232をリアルタイム追跡

Download on the App Store